| time (UTC) | temp C | wind direction | speed KPH | gust KPH | rain 1hr cm | rain 24hr cm | rain mn cm | humidity % | barometer mb |
| 20260509024532 | 12 | 0 | 0.0 | 0.0 | 0.00 | 0.00 | 0.00 | 69 | 1014.2 |
| 20260509024015 | 12 | 0 | 0.0 | 0.0 | 0.00 | 0.00 | 0.00 | 68 | 1014.3 |
| 20260509023515 | 12 | 0 | 0.0 | 0.0 | 0.00 | 0.00 | 0.00 | 67 | 1014.4 |
| 20260509023032 | 12 | 0 | 0.0 | 0.0 | 0.00 | 0.00 | 0.00 | 68 | 1014.3 |
| 20260509022514 | 12 | 0 | 0.0 | 0.0 | 0.00 | 0.00 | 0.00 | 67 | 1014.2 |
| 20260509022017 | 13 | 0 | 0.0 | 0.0 | 0.00 | 0.00 | 0.00 | 67 | 1014.2 |
| 20260509021537 | 13 | 0 | 0.0 | 0.0 | 0.00 | 0.00 | 0.00 | 66 | 1014.2 |
| 20260509021014 | 13 | 0 | 0.0 | 0.0 | 0.00 | 0.00 | 0.00 | 64 | 1014.2 |
| 20260509020515 | 13 | 0 | 0.0 | 0.0 | 0.00 | 0.00 | 0.00 | 64 | 1014.2 |
| 20260509020034 | 13 | 0 | 0.0 | 0.0 | 0.00 | 0.00 | 0.00 | 64 | 1014.1 |
| 20260509015518 | 13 | 0 | 0.0 | 0.0 | 0.00 | 0.00 | 0.00 | 63 | 1014.1 |
| 20260509015014 | 13 | 0 | 0.0 | 0.0 | 0.00 | 0.00 | 0.00 | 63 | 1014.0 |
| 20260509014532 | 13 | 0 | 0.0 | 0.0 | 0.00 | 0.00 | 0.00 | 63 | 1014.0 |
| 20260509014015 | 13 | 0 | 0.0 | 0.0 | 0.00 | 0.00 | 0.00 | 64 | 1014.0 |
| 20260509013515 | 13 | 0 | 0.0 | 0.0 | 0.00 | 0.00 | 0.00 | 64 | 1013.8 |
| 20260509013035 | 13 | 0 | 0.0 | 1.6 | 0.00 | 0.00 | 0.00 | 62 | 1013.7 |
| 20260509012515 | 13 | 0 | 0.0 | 1.6 | 0.00 | 0.00 | 0.00 | 63 | 1013.7 |
| 20260509012017 | 14 | 238 | 0.0 | 1.6 | 0.00 | 0.00 | 0.00 | 64 | 1013.7 |
| 20260509011534 | 14 | 0 | 0.0 | 0.0 | 0.00 | 0.00 | 0.00 | 62 | 1013.8 |
| 20260509011016 | 14 | 0 | 0.0 | 0.0 | 0.00 | 0.00 | 0.00 | 62 | 1013.8 |
| 20260509010516 | 14 | 0 | 0.0 | 0.0 | 0.00 | 0.00 | 0.00 | 61 | 1013.8 |
| 20260509010036 | 14 | 0 | 0.0 | 0.0 | 0.00 | 0.00 | 0.00 | 60 | 1013.8 |
| 20260509005516 | 15 | 0 | 0.0 | 0.0 | 0.00 | 0.00 | 0.00 | 60 | 1013.9 |
| 20260509005014 | 15 | 0 | 0.0 | 0.0 | 0.00 | 0.00 | 0.00 | 59 | 1013.8 |
| 20260509004535 | 15 | 0 | 0.0 | 0.0 | 0.00 | 0.00 | 0.00 | 60 | 1013.8 |
| 20260509004015 | 15 | 0 | 0.0 | 0.0 | 0.00 | 0.00 | 0.00 | 59 | 1013.8 |
| 20260509003518 | 16 | 0 | 0.0 | 0.0 | 0.00 | 0.00 | 0.00 | 58 | 1013.7 |
| 20260509003036 | 16 | 0 | 0.0 | 0.0 | 0.00 | 0.00 | 0.00 | 59 | 1013.7 |
| 20260509002516 | 17 | 240 | 0.0 | 0.0 | 0.00 | 0.00 | 0.00 | 51 | 1013.8 |
| 20260509002016 | 18 | 0 | 0.0 | 0.0 | 0.00 | 0.00 | 0.00 | 50 | 1013.6 |
| 20260509001531 | 19 | 0 | 0.0 | 0.0 | 0.00 | 0.00 | 0.00 | 50 | 1013.7 |
| 20260509001015 | 20 | 0 | 0.0 | 1.6 | 0.00 | 0.00 | 0.00 | 48 | 1013.6 |
| 20260509000516 | 20 | 0 | 0.0 | 3.2 | 0.00 | 0.00 | 0.00 | 47 | 1013.6 |
| 20260509000034 | 20 | 0 | 0.0 | 12.9 | 0.00 | 0.00 | 0.00 | 47 | 1013.8 |
| 20260508235516 | 20 | 0 | 1.6 | 12.9 | 0.00 | 0.00 | 0.00 | 45 | 1013.7 |
| 20260508235015 | 20 | 246 | 4.8 | 12.9 | 0.00 | 0.00 | 0.00 | 42 | 1013.7 |
| 20260508234532 | 21 | 228 | 3.2 | 6.4 | 0.00 | 0.00 | 0.00 | 43 | 1013.7 |
| 20260508234016 | 21 | 218 | 1.6 | 6.4 | 0.00 | 0.00 | 0.00 | 42 | 1013.7 |
| 20260508233518 | 21 | 272 | 1.6 | 6.4 | 0.00 | 0.00 | 0.00 | 43 | 1013.8 |
| 20260508233036 | 21 | 255 | 3.2 | 11.3 | 0.00 | 0.00 | 0.00 | 42 | 1013.8 |
| 20260508232516 | 20 | 269 | 1.6 | 11.3 | 0.00 | 0.00 | 0.00 | 45 | 1013.8 |
| 20260508232015 | 20 | 243 | 4.8 | 11.3 | 0.00 | 0.00 | 0.00 | 44 | 1013.8 |
| 20260508231532 | 20 | 282 | 6.4 | 11.3 | 0.00 | 0.00 | 0.00 | 41 | 1013.7 |
| 20260508231017 | 21 | 259 | 4.8 | 9.7 | 0.00 | 0.00 | 0.00 | 45 | 1013.6 |
| 20260508230518 | 20 | 283 | 4.8 | 12.9 | 0.00 | 0.00 | 0.00 | 48 | 1013.6 |
| 20260508230033 | 20 | 262 | 6.4 | 12.9 | 0.00 | 0.00 | 0.00 | 48 | 1013.7 |
| 20260508225516 | 20 | 293 | 8.0 | 12.9 | 0.00 | 0.00 | 0.00 | 46 | 1013.7 |
| 20260508225019 | 20 | 269 | 6.4 | 11.3 | 0.00 | 0.00 | 0.00 | 48 | 1013.8 |
| 20260508224545 | 21 | 310 | 3.2 | 9.7 | 0.00 | 0.00 | 0.00 | 44 | 1013.8 |
| 20260508224020 | 21 | 304 | 4.8 | 12.9 | 0.00 | 0.00 | 0.00 | 50 | 1014.0 |
| 20260508223517 | 20 | 259 | 8.0 | 12.9 | 0.00 | 0.00 | 0.00 | 44 | 1014.0 |
| 20260508223034 | 21 | 292 | 3.2 | 11.3 | 0.00 | 0.00 | 0.00 | 45 | 1014.0 |
| 20260508222517 | 21 | 250 | 4.8 | 12.9 | 0.00 | 0.00 | 0.00 | 43 | 1014.0 |
| 20260508222017 | 21 | 250 | 3.2 | 12.9 | 0.00 | 0.00 | 0.00 | 45 | 1014.0 |
| 20260508221534 | 21 | 264 | 9.7 | 14.5 | 0.00 | 0.00 | 0.00 | 44 | 1014.0 |
| 20260508221016 | 21 | 268 | 8.0 | 14.5 | 0.00 | 0.00 | 0.00 | 43 | 1014.0 |
| 20260508220513 | 21 | 299 | 6.4 | 12.9 | 0.00 | 0.00 | 0.00 | 42 | 1014.0 |
| 20260508220039 | 21 | 271 | 8.0 | 12.9 | 0.00 | 0.00 | 0.00 | 43 | 1013.9 |
| 20260508215519 | 21 | 218 | 4.8 | 12.9 | 0.00 | 0.00 | 0.00 | 44 | 1013.9 |
| 20260508215017 | 21 | 153 | 8.0 | 12.9 | 0.00 | 0.00 | 0.00 | 42 | 1014.1 |
| 20260508214539 | 21 | 301 | 8.0 | 12.9 | 0.00 | 0.00 | 0.00 | 41 | 1014.0 |
| 20260508214017 | 21 | 250 | 6.4 | 14.5 | 0.00 | 0.00 | 0.00 | 43 | 1014.1 |
| 20260508213513 | 21 | 250 | 6.4 | 17.7 | 0.00 | 0.00 | 0.00 | 40 | 1014.0 |
| 20260508213032 | 21 | 264 | 4.8 | 17.7 | 0.00 | 0.00 | 0.00 | 47 | 1014.1 |
| 20260508212516 | 21 | 298 | 9.7 | 17.7 | 0.00 | 0.00 | 0.00 | 42 | 1013.9 |
| 20260508212014 | 22 | 43 | 3.2 | 9.7 | 0.00 | 0.00 | 0.00 | 41 | 1013.9 |
| 20260508211534 | 21 | 0 | 1.6 | 11.3 | 0.00 | 0.00 | 0.00 | 41 | 1014.0 |
| 20260508211017 | 21 | 300 | 3.2 | 11.3 | 0.00 | 0.00 | 0.00 | 40 | 1013.8 |
| 20260508210516 | 22 | 298 | 3.2 | 11.3 | 0.00 | 0.00 | 0.00 | 43 | 1013.8 |
| 20260508210037 | 22 | 349 | 0.0 | 11.3 | 0.00 | 0.00 | 0.00 | 41 | 1013.8 |
| 20260508205515 | 21 | 0 | 3.2 | 11.3 | 0.00 | 0.00 | 0.00 | 41 | 1013.9 |
| 20260508205015 | 21 | 249 | 1.6 | 9.7 | 0.00 | 0.00 | 0.00 | 46 | 1014.1 |
| 20260508204538 | 21 | 234 | 4.8 | 9.7 | 0.00 | 0.00 | 0.00 | 43 | 1014.0 |
| 20260508204014 | 21 | 354 | 0.0 | 3.2 | 0.00 | 0.00 | 0.00 | 45 | 1014.0 |
| 20260508203516 | 20 | 25 | 0.0 | 12.9 | 0.00 | 0.00 | 0.00 | 47 | 1014.0 |
| 20260508203036 | 20 | 341 | 3.2 | 12.9 | 0.00 | 0.00 | 0.00 | 44 | 1014.1 |
| 20260508202516 | 21 | 285 | 4.8 | 9.7 | 0.00 | 0.00 | 0.00 | 43 | 1014.1 |
| 20260508202014 | 20 | 0 | 0.0 | 9.7 | 0.00 | 0.00 | 0.00 | 43 | 1014.1 |
| 20260508201534 | 20 | 330 | 4.8 | 11.3 | 0.00 | 0.00 | 0.00 | 43 | 1014.3 |
| 20260508201016 | 20 | 264 | 3.2 | 16.1 | 0.00 | 0.00 | 0.00 | 44 | 1014.3 |
| 20260508200516 | 20 | 293 | 8.0 | 16.1 | 0.00 | 0.00 | 0.00 | 45 | 1014.5 |
| 20260508200034 | 20 | 257 | 6.4 | 12.9 | 0.00 | 0.00 | 0.00 | 45 | 1014.5 |
| 20260508195515 | 20 | 180 | 4.8 | 16.1 | 0.00 | 0.00 | 0.00 | 46 | 1014.7 |
| 20260508195016 | 20 | 310 | 8.0 | 16.1 | 0.00 | 0.00 | 0.00 | 48 | 1015.0 |
| 20260508194534 | 20 | 313 | 6.4 | 12.9 | 0.00 | 0.00 | 0.00 | 49 | 1015.2 |
| 20260508194016 | 20 | 315 | 3.2 | 12.9 | 0.00 | 0.00 | 0.00 | 47 | 1015.3 |
| 20260508193516 | 20 | 259 | 6.4 | 14.5 | 0.00 | 0.00 | 0.00 | 44 | 1015.5 |
| 20260508193035 | 20 | 139 | 3.2 | 14.5 | 0.00 | 0.00 | 0.00 | 51 | 1015.5 |
| 20260508192515 | 20 | 314 | 4.8 | 14.5 | 0.00 | 0.00 | 0.00 | 45 | 1015.6 |
| 20260508192018 | 20 | 281 | 8.0 | 14.5 | 0.00 | 0.00 | 0.00 | 48 | 1015.6 |
| 20260508191540 | 20 | 314 | 4.8 | 14.5 | 0.00 | 0.00 | 0.00 | 43 | 1015.8 |
| 20260508191015 | 20 | 238 | 4.8 | 14.5 | 0.00 | 0.00 | 0.00 | 48 | 1015.8 |
| 20260508190516 | 20 | 264 | 9.7 | 14.5 | 0.00 | 0.00 | 0.00 | 45 | 1015.8 |
| 20260508190035 | 20 | 234 | 1.6 | 12.9 | 0.00 | 0.00 | 0.00 | 45 | 1015.9 |
| 20260508185515 | 20 | 287 | 4.8 | 12.9 | 0.00 | 0.00 | 0.00 | 40 | 1015.9 |
| 20260508185017 | 21 | 302 | 1.6 | 9.7 | 0.00 | 0.00 | 0.00 | 43 | 1016.0 |
| 20260508184538 | 21 | 221 | 3.2 | 9.7 | 0.00 | 0.00 | 0.00 | 45 | 1016.1 |
| 20260508184015 | 20 | 134 | 1.6 | 6.4 | 0.00 | 0.00 | 0.00 | 40 | 1016.3 |
| 20260508183515 | 20 | 0 | 1.6 | 6.4 | 0.00 | 0.00 | 0.00 | 41 | 1016.3 |
| 20260508183036 | 20 | 349 | 1.6 | 6.4 | 0.00 | 0.00 | 0.00 | 42 | 1016.3 |
| 20260508182516 | 20 | 206 | 0.0 | 6.4 | 0.00 | 0.00 | 0.00 | 44 | 1016.5 |
| 20260508182017 | 20 | 342 | 0.0 | 6.4 | 0.00 | 0.00 | 0.00 | 40 | 1016.5 |
| 20260508181544 | 20 | 76 | 1.6 | 6.4 | 0.00 | 0.00 | 0.00 | 43 | 1016.6 |
| 20260508181015 | 20 | 131 | 1.6 | 12.9 | 0.00 | 0.00 | 0.00 | 44 | 1016.5 |
| 20260508180516 | 20 | 94 | 1.6 | 12.9 | 0.00 | 0.00 | 0.00 | 40 | 1016.5 |
| 20260508180032 | 20 | 131 | 3.2 | 12.9 | 0.00 | 0.00 | 0.00 | 40 | 1016.5 |
| 20260508175517 | 20 | 221 | 3.2 | 8.0 | 0.00 | 0.00 | 0.00 | 44 | 1016.6 |
| 20260508175019 | 20 | 236 | 3.2 | 8.0 | 0.00 | 0.00 | 0.00 | 42 | 1016.6 |
| 20260508174538 | 19 | 0 | 0.0 | 4.8 | 0.00 | 0.00 | 0.00 | 42 | 1016.6 |
| 20260508174015 | 19 | 334 | 1.6 | 4.8 | 0.00 | 0.00 | 0.00 | 39 | 1016.7 |
| 20260508173516 | 18 | 160 | 1.6 | 9.7 | 0.00 | 0.00 | 0.00 | 40 | 1017.0 |
| 20260508173034 | 18 | 342 | 1.6 | 9.7 | 0.00 | 0.00 | 0.00 | 43 | 1016.9 |
| 20260508172518 | 18 | 328 | 4.8 | 11.3 | 0.00 | 0.00 | 0.00 | 38 | 1016.8 |
| 20260508172015 | 18 | 231 | 4.8 | 14.5 | 0.00 | 0.00 | 0.00 | 46 | 1017.1 |
| 20260508171541 | 18 | 226 | 4.8 | 14.5 | 0.00 | 0.00 | 0.00 | 42 | 1017.2 |
| 20260508171014 | 18 | 282 | 4.8 | 12.9 | 0.00 | 0.00 | 0.00 | 40 | 1017.1 |
| 20260508170514 | 18 | 236 | 4.8 | 9.7 | 0.00 | 0.00 | 0.00 | 45 | 1017.1 |
| 20260508170033 | 18 | 213 | 1.6 | 9.7 | 0.00 | 0.00 | 0.00 | 47 | 1017.3 |
| 20260508165517 | 19 | 281 | 4.8 | 9.7 | 0.00 | 0.03 | 0.00 | 43 | 1017.4 |
| 20260508165017 | 19 | 213 | 1.6 | 9.7 | 0.00 | 0.03 | 0.00 | 45 | 1017.6 |
| 20260508164532 | 19 | 127 | 1.6 | 9.7 | 0.00 | 0.03 | 0.00 | 48 | 1017.7 |
| 20260508164017 | 19 | 0 | 1.6 | 9.7 | 0.00 | 0.03 | 0.00 | 44 | 1017.9 |
| 20260508163515 | 18 | 182 | 1.6 | 9.7 | 0.00 | 0.03 | 0.00 | 45 | 1017.9 |
| 20260508163043 | 18 | 68 | 0.0 | 9.7 | 0.00 | 0.03 | 0.00 | 45 | 1017.9 |
| 20260508162521 | 18 | 191 | 3.2 | 9.7 | 0.00 | 0.03 | 0.00 | 46 | 1018.1 |
| 20260508162020 | 18 | 216 | 3.2 | 8.0 | 0.00 | 0.03 | 0.00 | 48 | 1018.0 |
| 20260508161549 | 17 | 184 | 4.8 | 8.0 | 0.00 | 0.03 | 0.00 | 47 | 1018.1 |
| 20260508161016 | 17 | 0 | 1.6 | 8.0 | 0.00 | 0.03 | 0.00 | 46 | 1018.1 |
| 20260508160515 | 17 | 0 | 0.0 | 8.0 | 0.00 | 0.03 | 0.00 | 47 | 1018.2 |
| 20260508160034 | 17 | 55 | 4.8 | 12.9 | 0.00 | 0.03 | 0.00 | 47 | 1018.2 |
| 20260508155515 | 17 | 0 | 3.2 | 12.9 | 0.00 | 0.03 | 0.00 | 51 | 1018.2 |
| 20260508155016 | 17 | 0 | 1.6 | 8.0 | 0.00 | 0.03 | 0.00 | 47 | 1018.3 |
| 20260508154534 | 17 | 74 | 0.0 | 8.0 | 0.00 | 0.03 | 0.00 | 53 | 1018.4 |
| 20260508154020 | 17 | 122 | 0.0 | 4.8 | 0.00 | 0.03 | 0.00 | 49 | 1018.4 |
| 20260508153515 | 17 | 179 | 0.0 | 8.0 | 0.00 | 0.03 | 0.00 | 49 | 1018.5 |
| 20260508153052 | 17 | 89 | 1.6 | 9.7 | 0.00 | 0.03 | 0.00 | 50 | 1018.6 |
| 20260508152516 | 17 | 80 | 3.2 | 9.7 | 0.00 | 0.03 | 0.00 | 54 | 1018.7 |
| 20260508152018 | 17 | 125 | 4.8 | 8.0 | 0.00 | 0.03 | 0.00 | 47 | 1018.8 |
| 20260508151533 | 16 | 169 | 0.0 | 8.0 | 0.00 | 0.03 | 0.00 | 48 | 1018.8 |
| 20260508151019 | 16 | 68 | 1.6 | 8.0 | 0.00 | 0.03 | 0.00 | 50 | 1018.8 |
| 20260508150518 | 16 | 124 | 1.6 | 8.0 | 0.00 | 0.03 | 0.00 | 49 | 1018.8 |
| 20260508150032 | 16 | 0 | 1.6 | 9.7 | 0.00 | 0.03 | 0.00 | 55 | 1018.8 |
| 20260508145515 | 16 | 15 | 3.2 | 9.7 | 0.00 | 0.08 | 0.00 | 58 | 1018.8 |
| 20260508145015 | 16 | 0 | 3.2 | 9.7 | 0.00 | 0.08 | 0.00 | 51 | 1018.8 |
| 20260508144532 | 16 | 20 | 1.6 | 4.8 | 0.00 | 0.08 | 0.00 | 57 | 1018.7 |
| 20260508144015 | 16 | 148 | 1.6 | 9.7 | 0.00 | 0.08 | 0.00 | 59 | 1018.8 |
| 20260508143516 | 16 | 235 | 3.2 | 9.7 | 0.00 | 0.08 | 0.00 | 56 | 1018.8 |
| 20260508143056 | 15 | 169 | 0.0 | 8.0 | 0.00 | 0.08 | 0.00 | 66 | 1018.9 |
| 20260508142515 | 15 | 239 | 3.2 | 9.7 | 0.00 | 0.08 | 0.00 | 68 | 1018.9 |
| 20260508142013 | 16 | 202 | 3.2 | 9.7 | 0.00 | 0.08 | 0.00 | 70 | 1019.0 |
| 20260508141537 | 16 | 0 | 0.0 | 3.2 | 0.00 | 0.08 | 0.00 | 74 | 1019.0 |
| 20260508141015 | 15 | 0 | 0.0 | 3.2 | 0.00 | 0.08 | 0.00 | 74 | 1019.1 |
| 20260508140513 | 15 | 221 | 0.0 | 3.2 | 0.00 | 0.08 | 0.00 | 77 | 1019.0 |
| 20260508140035 | 15 | 165 | 0.0 | 3.2 | 0.00 | 0.08 | 0.00 | 79 | 1019.1 |
| 20260508135514 | 14 | 120 | 0.0 | 1.6 | 0.00 | 0.10 | 0.00 | 82 | 1019.1 |
| 20260508135017 | 14 | 146 | 0.0 | 1.6 | 0.00 | 0.10 | 0.00 | 85 | 1019.0 |
| 20260508134537 | 13 | 0 | 0.0 | 1.6 | 0.00 | 0.10 | 0.00 | 86 | 1019.1 |
| 20260508134015 | 13 | 330 | 0.0 | 1.6 | 0.00 | 0.10 | 0.00 | 84 | 1019.1 |
| 20260508133516 | 13 | 0 | 0.0 | 1.6 | 0.00 | 0.10 | 0.00 | 87 | 1019.1 |
| 20260508133032 | 13 | 0 | 0.0 | 1.6 | 0.00 | 0.10 | 0.00 | 90 | 1019.0 |
| 20260508132515 | 12 | 0 | 0.0 | 1.6 | 0.00 | 0.10 | 0.00 | 90 | 1019.0 |
| 20260508132016 | 12 | 0 | 0.0 | 1.6 | 0.00 | 0.10 | 0.00 | 90 | 1019.0 |
| 20260508131537 | 12 | 0 | 0.0 | 1.6 | 0.00 | 0.10 | 0.00 | 90 | 1018.9 |
| 20260508131015 | 11 | 0 | 0.0 | 1.6 | 0.00 | 0.10 | 0.00 | 90 | 1018.9 |
| 20260508130515 | 11 | 0 | 0.0 | 1.6 | 0.00 | 0.10 | 0.00 | 90 | 1018.9 |
| 20260508130033 | 11 | 0 | 0.0 | 1.6 | 0.00 | 0.10 | 0.00 | 89 | 1018.9 |
| 20260508125515 | 11 | 0 | 0.0 | 1.6 | 0.00 | 0.13 | 0.00 | 89 | 1018.9 |
| 20260508125017 | 11 | 0 | 0.0 | 0.0 | 0.00 | 0.13 | 0.00 | 88 | 1018.8 |
| 20260508124536 | 11 | 0 | 0.0 | 0.0 | 0.00 | 0.13 | 0.00 | 87 | 1018.9 |
| 20260508124015 | 11 | 0 | 0.0 | 1.6 | 0.00 | 0.13 | 0.00 | 87 | 1018.9 |
| 20260508123517 | 11 | 0 | 0.0 | 1.6 | 0.00 | 0.13 | 0.00 | 87 | 1018.9 |
| 20260508123034 | 11 | 0 | 0.0 | 1.6 | 0.00 | 0.13 | 0.00 | 86 | 1018.9 |
| 20260508122516 | 11 | 252 | 0.0 | 1.6 | 0.00 | 0.13 | 0.00 | 85 | 1018.9 |
| 20260508122015 | 11 | 0 | 0.0 | 1.6 | 0.00 | 0.13 | 0.00 | 85 | 1018.8 |
| 20260508121533 | 11 | 0 | 0.0 | 1.6 | 0.00 | 0.13 | 0.00 | 85 | 1018.8 |
| 20260508121016 | 11 | 0 | 0.0 | 1.6 | 0.00 | 0.13 | 0.00 | 86 | 1018.7 |
| 20260508120516 | 11 | 0 | 0.0 | 0.0 | 0.00 | 0.13 | 0.00 | 85 | 1018.6 |
| 20260508120033 | 11 | 0 | 0.0 | 0.0 | 0.00 | 0.13 | 0.00 | 85 | 1018.5 |
| 20260508115516 | 11 | 0 | 0.0 | 0.0 | 0.00 | 0.13 | 0.00 | 86 | 1018.4 |
| 20260508115015 | 11 | 0 | 0.0 | 0.0 | 0.00 | 0.13 | 0.00 | 89 | 1018.3 |
| 20260508114536 | 10 | 0 | 0.0 | 0.0 | 0.00 | 0.13 | 0.00 | 92 | 1018.2 |
| 20260508114015 | 10 | 0 | 0.0 | 0.0 | 0.00 | 0.13 | 0.00 | 93 | 1018.2 |
| 20260508113517 | 9 | 0 | 0.0 | 1.6 | 0.00 | 0.13 | 0.00 | 93 | 1018.0 |
| 20260508113034 | 9 | 0 | 0.0 | 1.6 | 0.00 | 0.13 | 0.00 | 93 | 1017.9 |
| 20260508112513 | 9 | 0 | 0.0 | 1.6 | 0.00 | 0.13 | 0.00 | 95 | 1018.0 |
| 20260508112016 | 8 | 0 | 0.0 | 0.0 | 0.00 | 0.13 | 0.00 | 95 | 1017.9 |
| 20260508111536 | 8 | 0 | 0.0 | 0.0 | 0.00 | 0.13 | 0.00 | 95 | 1017.7 |
| 20260508111015 | 7 | 0 | 0.0 | 0.0 | 0.00 | 0.13 | 0.00 | 95 | 1017.7 |
| 20260508110514 | 7 | 0 | 0.0 | 1.6 | 0.00 | 0.13 | 0.00 | 95 | 1017.7 |
| 20260508110035 | 7 | 0 | 0.0 | 1.6 | 0.00 | 0.13 | 0.00 | 95 | 1017.6 |
| 20260508105515 | 6 | 0 | 0.0 | 0.0 | 0.00 | 0.13 | 0.00 | 95 | 1017.5 |
| 20260508105015 | 6 | 0 | 0.0 | 1.6 | 0.00 | 0.13 | 0.00 | 94 | 1017.6 |
| 20260508104532 | 6 | 0 | 0.0 | 1.6 | 0.00 | 0.13 | 0.00 | 94 | 1017.5 |
| 20260508104015 | 6 | 0 | 0.0 | 1.6 | 0.00 | 0.13 | 0.00 | 94 | 1017.5 |
| 20260508103515 | 6 | 0 | 0.0 | 1.6 | 0.00 | 0.13 | 0.00 | 93 | 1017.4 |
| 20260508103042 | 6 | 51 | 0.0 | 1.6 | 0.00 | 0.13 | 0.00 | 93 | 1017.3 |
| 20260508102515 | 6 | 0 | 0.0 | 1.6 | 0.00 | 0.13 | 0.00 | 93 | 1017.4 |
| 20260508102017 | 6 | 39 | 0.0 | 1.6 | 0.00 | 0.13 | 0.00 | 92 | 1017.3 |
| 20260508101534 | 6 | 0 | 0.0 | 0.0 | 0.00 | 0.13 | 0.00 | 92 | 1017.3 |
| 20260508101014 | 6 | 0 | 0.0 | 0.0 | 0.00 | 0.13 | 0.00 | 92 | 1017.4 |
| 20260508100516 | 6 | 0 | 0.0 | 0.0 | 0.00 | 0.13 | 0.00 | 91 | 1017.4 |
| 20260508100048 | 6 | 0 | 0.0 | 0.0 | 0.00 | 0.13 | 0.00 | 91 | 1017.3 |
| 20260508095518 | 6 | 0 | 0.0 | 0.0 | 0.00 | 0.15 | 0.00 | 91 | 1017.2 |
| 20260508095016 | 6 | 0 | 0.0 | 0.0 | 0.00 | 0.15 | 0.00 | 91 | 1017.2 |
| 20260508094538 | 6 | 0 | 0.0 | 0.0 | 0.00 | 0.15 | 0.00 | 91 | 1017.3 |
| 20260508094015 | 6 | 0 | 0.0 | 0.0 | 0.00 | 0.15 | 0.00 | 92 | 1017.2 |
| 20260508093516 | 6 | 0 | 0.0 | 0.0 | 0.00 | 0.15 | 0.00 | 92 | 1017.1 |
| 20260508093037 | 6 | 0 | 0.0 | 0.0 | 0.00 | 0.15 | 0.00 | 92 | 1017.1 |
| 20260508092515 | 6 | 0 | 0.0 | 0.0 | 0.00 | 0.15 | 0.00 | 93 | 1017.1 |
| 20260508092015 | 6 | 0 | 0.0 | 0.0 | 0.00 | 0.15 | 0.00 | 93 | 1016.9 |
| 20260508091549 | 6 | 0 | 0.0 | 0.0 | 0.00 | 0.15 | 0.00 | 92 | 1017.0 |
| 20260508091019 | 6 | 0 | 0.0 | 0.0 | 0.00 | 0.15 | 0.00 | 93 | 1017.0 |
| 20260508090515 | 6 | 0 | 0.0 | 0.0 | 0.00 | 0.15 | 0.00 | 93 | 1017.0 |
| 20260508090040 | 6 | 0 | 0.0 | 0.0 | 0.00 | 0.15 | 0.00 | 93 | 1017.0 |
| 20260508085515 | 6 | 0 | 0.0 | 0.0 | 0.00 | 0.20 | 0.00 | 93 | 1017.0 |
| 20260508085014 | 6 | 0 | 0.0 | 0.0 | 0.00 | 0.20 | 0.00 | 93 | 1016.9 |
| 20260508084535 | 6 | 0 | 0.0 | 0.0 | 0.00 | 0.20 | 0.00 | 93 | 1016.8 |
| 20260508084015 | 6 | 0 | 0.0 | 0.0 | 0.00 | 0.20 | 0.00 | 93 | 1016.8 |
| 20260508083518 | 6 | 0 | 0.0 | 0.0 | 0.00 | 0.20 | 0.00 | 92 | 1016.9 |
| 20260508083037 | 6 | 0 | 0.0 | 1.6 | 0.00 | 0.20 | 0.00 | 92 | 1016.8 |
| 20260508082515 | 7 | 0 | 0.0 | 1.6 | 0.00 | 0.20 | 0.00 | 93 | 1016.8 |
| 20260508082016 | 6 | 79 | 0.0 | 1.6 | 0.00 | 0.20 | 0.00 | 93 | 1016.8 |
| 20260508081538 | 6 | 0 | 0.0 | 1.6 | 0.00 | 0.20 | 0.00 | 93 | 1016.7 |
| 20260508081016 | 6 | 88 | 0.0 | 1.6 | 0.00 | 0.20 | 0.00 | 93 | 1016.8 |
| 20260508080518 | 6 | 0 | 0.0 | 1.6 | 0.00 | 0.20 | 0.00 | 92 | 1016.8 |
| 20260508080032 | 7 | 0 | 0.0 | 1.6 | 0.00 | 0.20 | 0.00 | 92 | 1016.8 |
| 20260508075515 | 7 | 0 | 0.0 | 0.0 | 0.00 | 0.20 | 0.00 | 92 | 1016.9 |
| 20260508075013 | 7 | 0 | 0.0 | 0.0 | 0.00 | 0.20 | 0.00 | 92 | 1017.0 |
| 20260508074535 | 7 | 0 | 0.0 | 1.6 | 0.00 | 0.20 | 0.00 | 92 | 1017.1 |
| 20260508074015 | 7 | 0 | 0.0 | 1.6 | 0.00 | 0.20 | 0.00 | 92 | 1017.1 |
| 20260508073517 | 7 | 0 | 0.0 | 1.6 | 0.00 | 0.20 | 0.00 | 92 | 1017.1 |
| 20260508073038 | 7 | 97 | 0.0 | 1.6 | 0.00 | 0.20 | 0.00 | 92 | 1017.1 |
| 20260508072516 | 7 | 0 | 0.0 | 0.0 | 0.00 | 0.20 | 0.00 | 92 | 1017.2 |
| 20260508072019 | 7 | 0 | 0.0 | 1.6 | 0.00 | 0.20 | 0.00 | 92 | 1017.2 |
| 20260508071536 | 7 | 0 | 0.0 | 1.6 | 0.00 | 0.20 | 0.00 | 92 | 1017.0 |
| 20260508071015 | 7 | 0 | 0.0 | 1.6 | 0.00 | 0.20 | 0.00 | 92 | 1017.1 |
| 20260508070516 | 7 | 0 | 0.0 | 1.6 | 0.00 | 0.20 | 0.00 | 92 | 1017.1 |
| 20260508070035 | 7 | 0 | 0.0 | 1.6 | 0.00 | 0.20 | 0.00 | 92 | 1017.1 |
| 20260508065515 | 7 | 0 | 0.0 | 1.6 | 0.00 | 0.20 | 0.00 | 92 | 1017.1 |
| 20260508065018 | 7 | 0 | 0.0 | 1.6 | 0.00 | 0.20 | 0.00 | 91 | 1017.1 |
| 20260508064537 | 7 | 0 | 0.0 | 0.0 | 0.00 | 0.20 | 0.00 | 91 | 1017.1 |
| 20260508064015 | 8 | 0 | 0.0 | 0.0 | 0.00 | 0.20 | 0.00 | 91 | 1017.1 |
| 20260508063517 | 8 | 0 | 0.0 | 0.0 | 0.00 | 0.20 | 0.00 | 90 | 1017.1 |
| 20260508063034 | 8 | 0 | 0.0 | 0.0 | 0.00 | 0.20 | 0.00 | 90 | 1017.1 |
| 20260508062513 | 8 | 0 | 0.0 | 0.0 | 0.00 | 0.20 | 0.00 | 89 | 1017.1 |
| 20260508062016 | 8 | 0 | 0.0 | 0.0 | 0.00 | 0.20 | 0.00 | 88 | 1017.1 |
| 20260508061535 | 8 | 0 | 0.0 | 0.0 | 0.00 | 0.20 | 0.00 | 88 | 1017.0 |
| 20260508061015 | 8 | 0 | 0.0 | 1.6 | 0.00 | 0.20 | 0.00 | 88 | 1017.1 |
| 20260508060514 | 9 | 0 | 0.0 | 1.6 | 0.00 | 0.20 | 0.00 | 87 | 1017.1 |
| 20260508060046 | 9 | 0 | 0.0 | 0.0 | 0.00 | 0.20 | 0.00 | 86 | 1017.1 |
| 20260508055516 | 9 | 0 | 0.0 | 1.6 | 0.00 | 0.28 | 0.00 | 86 | 1017.2 |
| 20260508055016 | 10 | 0 | 0.0 | 1.6 | 0.00 | 0.28 | 0.00 | 86 | 1017.2 |
| 20260508054607 | 10 | 0 | 0.0 | 1.6 | 0.00 | 0.28 | 0.00 | 85 | 1017.1 |
| 20260508054016 | 10 | 0 | 0.0 | 1.6 | 0.00 | 0.28 | 0.00 | 84 | 1017.1 |
| 20260508053516 | 10 | 0 | 0.0 | 4.8 | 0.00 | 0.28 | 0.00 | 84 | 1017.3 |
| 20260508053046 | 10 | 350 | 1.6 | 4.8 | 0.00 | 0.28 | 0.00 | 86 | 1017.3 |
| 20260508052516 | 9 | 15 | 1.6 | 3.2 | 0.00 | 0.28 | 0.00 | 87 | 1017.3 |
| 20260508052013 | 9 | 21 | 0.0 | 1.6 | 0.00 | 0.28 | 0.00 | 88 | 1017.3 |
| 20260508051533 | 9 | 11 | 0.0 | 1.6 | 0.00 | 0.28 | 0.00 | 88 | 1017.3 |
| 20260508051016 | 9 | 6 | 0.0 | 1.6 | 0.00 | 0.28 | 0.00 | 89 | 1017.3 |
| 20260508050516 | 9 | 5 | 0.0 | 1.6 | 0.00 | 0.28 | 0.00 | 89 | 1017.2 |
| 20260508050032 | 9 | 28 | 1.6 | 1.6 | 0.00 | 0.28 | 0.00 | 89 | 1017.2 |
| 20260508045515 | 9 | 25 | 0.0 | 1.6 | 0.00 | 0.28 | 0.00 | 89 | 1017.1 |
| 20260508045015 | 10 | 24 | 0.0 | 1.6 | 0.00 | 0.28 | 0.00 | 87 | 1017.1 |
| 20260508044534 | 10 | 0 | 0.0 | 1.6 | 0.00 | 0.28 | 0.00 | 85 | 1017.1 |
| 20260508044015 | 10 | 0 | 0.0 | 3.2 | 0.00 | 0.28 | 0.00 | 84 | 1017.1 |
| 20260508043515 | 10 | 4 | 0.0 | 3.2 | 0.00 | 0.28 | 0.00 | 83 | 1017.0 |
| 20260508043036 | 10 | 359 | 1.6 | 4.8 | 0.00 | 0.28 | 0.00 | 84 | 1016.8 |
| 20260508042517 | 10 | 27 | 1.6 | 4.8 | 0.00 | 0.28 | 0.00 | 85 | 1016.8 |
| 20260508042015 | 10 | 19 | 3.2 | 4.8 | 0.00 | 0.28 | 0.00 | 86 | 1016.8 |
| 20260508041532 | 10 | 25 | 3.2 | 4.8 | 0.00 | 0.28 | 0.00 | 87 | 1016.8 |
| 20260508041017 | 9 | 10 | 1.6 | 4.8 | 0.00 | 0.28 | 0.00 | 90 | 1016.8 |
| 20260508040517 | 9 | 27 | 1.6 | 3.2 | 0.00 | 0.28 | 0.00 | 91 | 1016.6 |
| 20260508040035 | 9 | 27 | 1.6 | 3.2 | 0.00 | 0.28 | 0.00 | 91 | 1016.6 |
| 20260508035516 | 10 | 25 | 1.6 | 3.2 | 0.00 | 0.30 | 0.28 | 90 | 1016.5 |
| 20260508035016 | 10 | 25 | 0.0 | 4.8 | 0.00 | 0.30 | 0.28 | 91 | 1016.5 |
| 20260508034538 | 10 | 15 | 1.6 | 4.8 | 0.00 | 0.30 | 0.28 | 93 | 1016.5 |
| 20260508034018 | 9 | 11 | 3.2 | 3.2 | 0.00 | 0.30 | 0.28 | 94 | 1016.5 |
| 20260508033515 | 9 | 19 | 3.2 | 3.2 | 0.00 | 0.30 | 0.28 | 95 | 1016.4 |
| 20260508033036 | 9 | 24 | 1.6 | 3.2 | 0.00 | 0.30 | 0.28 | 95 | 1016.5 |
| 20260508032516 | 9 | 23 | 1.6 | 1.6 | 0.00 | 0.30 | 0.28 | 95 | 1016.5 |
| 20260508032015 | 9 | 0 | 0.0 | 1.6 | 0.00 | 0.30 | 0.28 | 95 | 1016.5 |
| 20260508031535 | 10 | 23 | 0.0 | 1.6 | 0.00 | 0.30 | 0.28 | 95 | 1016.3 |
| 20260508031015 | 10 | 26 | 0.0 | 1.6 | 0.00 | 0.30 | 0.28 | 95 | 1016.4 |
| 20260508030513 | 10 | 26 | 0.0 | 1.6 | 0.00 | 0.30 | 0.28 | 95 | 1016.4 |
| 20260508030039 | 10 | 25 | 0.0 | 1.6 | 0.00 | 0.30 | 0.28 | 95 | 1016.5 |
| 20260508025515 | 10 | 24 | 0.0 | 1.6 | 0.00 | 0.36 | 0.28 | 95 | 1016.5 |
| 20260508025015 | 11 | 0 | 0.0 | 1.6 | 0.00 | 0.36 | 0.28 | 95 | 1016.4 |